Regional Weather Roundup
Issued by NWS Nashville, TN

Current Version | Previous Version | Text Only | Print | Product List | Glossary On
Versions: 1 2 3 4 5 6 7 8 9 10 11 12 13 14 15 16 17 18 19 20 21 22 23 24 25 26 27 28 29 30 31 32 33 34 35 36 37 38 39 40 41 42 43 44 45 46 47 48 49 50
000
ASUS44 KOHX 282110
RWROHX
MIDDLE TENNESSEE HOURLY WEATHER ROUNDUP
NATIONAL WEATHER SERVICE NASHVILLE TN
400 PM CDT SUN AUG 28 2016

NOTE: "FAIR" INDICATES FEW OR NO CLOUDS BELOW 12,000 FEET WITH
NO SIGNIFICANT WEATHER AND/OR OBSTRUCTIONS TO VISIBILITY.

* THESE REPORTS ARE NOT UNDER NWS QUALITY CONTROL AND MAY NOT
  REPORT WEATHER SUCH AS PRECIPITATION AND FOG.


TNZ005>011-023>034-057-059-062>066-078-080-282200
...NORTHERN MIDDLE TENNESSEE...

CITY           SKY/WX    TMP DP  RH WIND       PRES   REMARKS
CLARKSVILLE    MOSUNNY   92  70  48 SW5       30.08F HX  97
CROSSVILLE     CLOUDY    82  71  69 N5        30.16F
NASHVILLE      MOSUNNY   94  69  44 N8        30.09F HX  99
WEST NASHVILLE SUNNY     91  70  49 VRB6      30.08F HX  97
SMYRNA         MOSUNNY   91  72  52 NE7       30.08F HX  98
SPARTA         SUNNY     73  72  94 CALM      30.11F
$$
TNZ056-058-060-061-075>077-079-093>097-282200
...SOUTHERN MIDDLE TENNESSEE...

CITY           SKY/WX    TMP DP  RH WIND       PRES   REMARKS
COLUMBIA       MOSUNNY   93  72  49 CALM      30.07F HX 100
MCMINNVILLE    SUNNY     81  72  74 E3        30.12F
SHELBYVILLE    MOSUNNY   86  72  62 VRB7      30.12F HX  92
TULLAHOMA      SUNNY     84  68  58 NE8       30.13F
WINCHESTER     SUNNY     88  70  55 N9        30.10F HX  92
$$


...KEY TO REMARKS...
VSB - VISIBILITY IN MILES
WCI - WIND CHILL INDEX
HX  - HEAT INDEX




USA.gov is the U.S. government's official web portal to all federal, state and local government web resources and services.